Location: Newark
(34.3481°N, 134.0494°E)
Time: 03:04:50
(UTC+00:00)

Hubble Space Telescope - Visible Passes

Search period start: 16 December 2019 00:00
Search period end: 26 December 2019 00:00
Orbit: 536 x 540 km, 28.5° (Epoch: 14 December)

Date Brightness Start Highest point End Pass type
(mag) Time Alt. Az. Time Alt. Az. Time Alt. Az.
16 Dec 3.8 19:12:39 13° SE 19:12:39 13° SE 19:13:25 10° ESE visible
16 Dec 2.1 20:48:01 13° SW 20:51:13 34° S 20:54:59 10° ESE visible
17 Dec 4.0 19:02:53 11° ESE 19:02:53 11° ESE 19:03:01 10° ESE visible
17 Dec 2.0 20:38:13 19° SW 20:40:34 35° S 20:44:22 10° ESE visible
18 Dec 1.9 20:28:22 26° SW 20:29:55 36° S 20:33:44 10° ESE visible
19 Dec 1.8 20:18:27 33° SSW 20:19:16 36° S 20:23:05 10° ESE visible
20 Dec 1.8 20:08:31 35° S 20:08:37 35° S 20:12:24 10° ESE visible
21 Dec 2.1 19:58:33 32° SSE 19:58:33 32° SSE 20:01:43 10° ESE visible
21 Dec 2.9 21:35:49 10° WSW 21:38:41 18° SSW 21:41:33 10° SSE visible
22 Dec 2.6 19:48:35 25° SSE 19:48:35 25° SSE 19:50:59 10° SE visible
22 Dec 3.1 21:25:33 10° WSW 21:27:59 15° SSW 21:30:26 10° SSE visible
23 Dec 3.1 19:38:37 19° SSE 19:38:37 19° SSE 19:40:13 10° SE visible
23 Dec 3.2 21:15:30 10° SW 21:17:17 12° SSW 21:19:02 10° S visible
24 Dec 3.5 19:28:40 14° SE 19:28:40 14° SE 19:29:23 10° SE visible
